Location: Table Rock
(44.3339°N, 118.3154°W)
Time: 00:11:44
(UTC-07:00)

Daily predictions for brighter satellites

Satellite Brightness Start Highest point End
(mag) Time Altitude Azimuth Time Altitude Azimuth Time Altitude Azimuth
Meteor 2-5 Rocket 3.9 00:04:46 53° SSE 00:05:55 65° E 00:11:41 10° NNE
Cosmos 1023 Rocket 4.4 00:05:04 60° SSW 00:06:05 87° WNW 00:11:24 10° NNE
Cosmos 1689 Rocket 3.8 00:08:25 34° NNE 00:08:25 34° NNE 00:10:34 10° N
Cosmos 2026 Rocket 4.1 00:07:58 47° SE 00:09:15 56° E 00:15:10 10° NNE
SL-27 R/B 3.6 00:11:10 40° NNW 00:11:10 40° NNW 00:13:48 10° N
Cosmos 1140 Rocket 3.5 00:09:47 57° SW 00:10:51 80° WNW 00:16:09 10° NNE
Terra 3.9 00:09:45 14° WSW 00:11:05 16° W 00:13:59 10° NW
Cosmos 1544 3.7 00:07:27 10° NNW 00:10:38 55° NW 00:10:38 55° NW
Helios 1A Rocket 4.1 00:07:27 10° NNE 00:10:28 32° ENE 00:10:28 32° ENE
Okean 3 Rocket 3.5 00:13:32 80° ENE 00:13:32 80° ENE 00:17:52 10° N
Cosmos 1932 4.4 00:14:23 41° SW 00:16:45 83° WNW 00:23:03 10° NNE
Cosmos 2221 2.6 00:14:47 10° N 00:19:00 64° ENE 00:19:00 64° ENE
Cosmos 2084 3.7 00:17:52 10° NW 00:21:24 59° WNW 00:21:24 59° WNW
Cosmos 1943 Rocket 2.8 00:18:17 10° NW 00:23:26 41° WSW 00:24:02 39° WSW
Cosmos 1733 3.6 00:19:45 10° N 00:23:05 63° NNW 00:23:05 63° NNW
Meteor 2-1 Rocket 4.5 00:17:47 10° N 00:23:42 65° ENE 00:25:03 50° SE
H-2A R/B 2.5 00:20:11 10° NNE 00:23:32 65° N 00:23:32 65° N
Cosmos 1076 Rocket 4.2 00:24:37 42° ENE 00:24:37 42° ENE 00:28:15 10° NNE
SL-8 R/B 3.9 00:19:44 10° WNW 00:24:34 69° NNE 00:26:27 36° E
CZ-4C R/B 4.4 00:26:35 32° NW 00:26:35 32° NW 00:28:35 10° NNW
Landsat 5 3.5 00:25:58 68° N 00:25:58 68° N 00:29:31 10° N
Cosmos 1953 4.4 00:25:46 10° NW 00:28:31 18° W 00:28:35 18° W
CZ-4B R/B 2.3 00:31:27 50° NNW 00:31:27 50° NNW 00:34:19 10° NNW
Cosmos 1470 3.6 00:27:26 10° NNW 00:30:39 44° WNW 00:30:39 44° WNW
Cosmos 2208 Rocket 4.4 00:26:48 10° NNW 00:31:46 48° WSW 00:32:05 47° WSW
ALOS 2 2.7 00:35:56 64° W 00:35:56 64° W 00:40:09 10° NNW
Cosmos 1607 3.8 00:34:23 54° SSW 00:35:55 81° ESE 00:42:09 10° NE
Cosmos 1378 4.3 00:40:16 36° ENE 00:40:16 36° ENE 00:43:04 10° NNE
Lacrosse 4 Rocket 3.7 00:39:33 13° W 00:41:58 20° NW 00:45:01 10° N
Cosmos 1417 Rocket 4.4 00:37:22 10° N 00:43:32 85° W 00:44:54 57° S
Cosmos 1656 Rocket 3.8 00:39:00 10° NNW 00:44:35 57° WSW 00:45:09 55° SW
Cosmos 614 Rocket 4.2 00:45:41 52° WSW 00:46:39 62° WNW 00:51:50 10° NNE
CZ-2C R/B 4.3 00:45:33 28° ESE 00:47:33 37° ENE 00:52:43 10° N
NOSS 3-2 (A) 3.6 00:48:06 51° SE 00:48:53 54° ESE 00:55:20 10° NE
ATLAS 3B R/B 4.0 00:42:17 10° WSW 00:49:26 40° NW 00:56:23 10° NNE
Cosmos 1553 Rocket 4.0 00:43:08 10° N 00:49:28 82° E 00:51:06 53° SSE
Cosmos 2369 4.3 00:46:57 10° NNW 00:52:28 50° ENE 00:54:37 33° ESE
CZ-2C R/B 3.0 00:47:23 10° NNE 00:52:49 51° E 00:53:33 48° SE
Cosmos 1408 Rocket 3.5 00:55:37 80° WNW 00:55:37 80° WNW 01:00:03 10° N
Cosmos 405 Rocket 3.3 00:58:21 51° NE 00:58:21 51° NE 01:01:26 10° NNE
Cosmos 2344 4.2 00:58:14 35° SE 01:00:10 40° ESE 01:07:57 10° NE
ISS -1.2 01:00:51 24° NW 01:01:40 27° NNW 01:04:32 10° NE
Meteor 1-16 Rocket 4.5 00:57:03 10° NNW 01:02:27 53° W 01:03:15 49° SW
CZ-4C R/B 2.1 01:06:09 59° SE 01:06:37 62° ESE 01:12:32 10° NE
Cosmos 1340 4.4 01:08:08 24° WNW 01:08:08 24° WNW 01:11:11 10° NNW
PSLV R/B 4.5 01:08:17 51° E 01:08:29 51° ENE 01:12:34 10° N
COSMOS 2406 4.4 01:08:18 24° WSW 01:11:01 37° NW 01:16:19 10° NNE
Cosmos 1655 Rocket 4.5 01:10:26 39° SW 01:12:19 51° WNW 01:18:26 10° N
Timation 2 Rocket 4.3 01:11:53 47° SSE 01:13:35 60° ESE 01:20:17 10° NNE
S3M 4.1 01:08:06 10° NNW 01:14:18 65° W 01:15:40 51° SW
Cosmos 2278 3.6 01:10:45 10° NNW 01:16:27 85° ENE 01:17:43 56° SSE
USA 238 DEB 4.4 01:14:13 20° WSW 01:19:02 51° NW 01:25:54 10° NNE
USA 238 4.4 01:14:21 21° WSW 01:19:06 51° NW 01:26:00 10° NNE
USA 215 4.0 01:13:30 10° ENE 01:19:20 34° SE 01:19:53 33° SE
Cosmos 1743 Rocket 3.5 01:20:03 87° ENE 01:20:03 87° ENE 01:24:29 10° N
Cosmos 2266 Rocket 4.1 01:19:40 50° SSE 01:21:25 74° E 01:27:50 10° NNE
COSMOS 2487 4.3 01:22:19 24° WNW 01:22:19 24° WNW 01:25:15 10° N
Cosmos 1980 Rocket 4.2 01:18:02 10° N 01:22:37 25° NE 01:27:11 10° ESE
MOS 1-B Rocket 4.4 01:20:13 41° SSE 01:23:21 86° WSW 01:30:18 10° NNW
Cosmos 1151 Rocket 3.5 01:24:28 10° N 01:28:38 49° ENE 01:28:59 48° E
Cosmos 841 Rocket 3.7 01:23:56 10° NNW 01:29:11 67° ENE 01:30:36 47° SE
Cosmos 1500 Rocket 3.4 01:38:46 86° W 01:38:47 86° W 01:43:09 10° N
Cosmos 2082 Rocket 2.5 01:39:17 46° SE 01:40:19 53° ESE 01:45:50 10° NE
NOSS 3-3 (A) 4.5 01:36:18 10° NW 01:43:37 62° WSW 01:46:23 41° S
NOSS 3-3 (C) 4.5 01:36:26 10° NW 01:43:45 62° WSW 01:46:34 40° S
Cosmos 2228 Rocket 4.0 01:39:52 10° NNW 01:43:39 36° W 01:43:39 36° W
Cosmos 2151 3.6 01:43:59 44° ESE 01:44:17 45° E 01:48:22 10° NNE
Cosmos 1697 Rocket 3.3 01:39:24 10° NNW 01:44:58 52° ENE 01:48:28 22° SE
Lacrosse 5 3.3 01:41:01 10° NW 01:45:44 37° NNE 01:50:25 10° E
Cosmos 1328 Rocket 4.1 01:43:04 10° NNW 01:46:59 44° W 01:46:59 44° W
Cosmos 2058 4.1 01:52:14 31° ESE 01:52:51 33° E 01:56:36 10° NNE
NOSS 3-2 (C) 3.6 01:50:43 40° SW 01:53:06 74° NW 01:59:53 10° NE
Cosmos 1818 3.6 01:49:20 10° NW 01:54:43 58° WSW 01:55:16 55° SW
Cosmos 1833 Rocket 3.0 01:54:34 44° SSE 01:55:54 55° ESE 02:01:24 10° NNE
Cosmos 1515 Rocket 4.0 01:51:45 10° NNW 01:55:56 46° W 01:55:56 46° W
Cosmos 836 Rocket 4.4 01:53:19 10° NNW 01:58:34 90° E 01:59:56 51° SSE
Landsat 4 3.9 01:59:08 60° E 01:59:19 61° ENE 02:03:02 10° N
BREEZE-M DEB (TANK) 3.9 01:49:19 10° W 01:59:20 51° NNW 02:02:34 10° ENE
Meteor 2-2 Rocket 4.3 01:53:45 10° NNW 01:59:24 66° W 02:00:45 50° SSW
CENTAUR R/B 3.4 01:58:16 30° SE 02:00:03 35° ESE 02:06:04 10° NE
Cosmos 1674 2.6 02:03:11 78° N 02:03:11 78° N 02:06:44 10° N
Iridium 2 3.8 02:09:01 64° ESE 02:09:09 64° E 02:12:56 10° N
Cosmos 1726 3.5 02:09:58 10° N 02:13:22 33° ENE 02:14:26 27° ESE
Meteor 2-11 Rocket 4.4 02:09:40 10° N 02:15:51 87° E 02:18:35 36° S
Lacrosse 5 rocket 4.0 02:13:07 10° NNW 02:16:38 23° NNE 02:20:14 10° ENE
SL-16 R/B 4.2 02:15:25 10° N 02:20:12 27° NE 02:24:57 10° ESE
ASTEX 1 3.5 02:17:34 10° N 02:22:30 63° W 02:23:40 48° SW
CZ-2C R/B 4.0 02:26:37 31° WSW 02:27:25 33° W 02:32:28 10° NNW
Cosmos 1805 Rocket 3.5 02:28:23 55° S 02:29:19 87° E 02:33:47 10° N
Cosmos 1656 3.8 02:23:47 10° NNW 02:29:23 57° WSW 02:31:03 41° SSW
Cosmos 1867 3.9 02:27:43 35° WSW 02:29:51 60° NW 02:35:18 10° NNE
CZ-2C R/B 4.2 02:28:16 10° N 02:32:45 25° WNW 02:35:05 19° W
Abrixas 3.6 02:34:42 39° E 02:34:42 39° E 02:36:52 10° ENE
Cosmos 1763 Rocket 4.4 02:29:22 10° NW 02:33:59 31° W 02:34:21 31° WSW
Cosmos 2322 Rocket 3.7 02:29:48 10° N 02:34:57 35° NE 02:40:04 10° ESE
Genesis I 3.4 02:31:15 10° NW 02:34:47 52° W 02:34:47 52° W
Meteor 1-11 4.3 02:34:41 34° S 02:37:17 76° E 02:43:06 10° NNE
ISS -0.8 02:36:07 10° NW 02:38:48 23° N 02:41:29 10° ENE
IRS-P3 4.1 02:34:19 10° NNE 02:39:40 82° ESE 02:41:54 37° S
Cosmos 1633 Rocket 3.2 02:38:24 41° SSE 02:39:48 69° E 02:44:14 10° NNE
IRAS Rocket 4.2 02:36:00 10° NNE 02:41:32 81° WNW 02:43:48 37° SSW
Cosmos 1707 Rocket 3.5 02:37:12 10° NNW 02:41:33 68° W 02:42:32 50° SSW
AQUA 4.1 02:38:04 10° NNE 02:42:48 60° E 02:44:48 33° SSE
Cosmos 1437 Rocket 3.8 02:40:51 10° NNW 02:44:06 30° W 02:44:06 30° W
SL-16 R/B 4.0 02:38:44 10° SE 02:44:20 36° ENE 02:49:57 10° N
Cosmos 1666 Rocket 3.4 02:44:42 48° SSW 02:45:53 84° W 02:50:14 10° N
Cosmos 540 Rocket 3.4 02:41:36 10° NNW 02:46:45 70° WSW 02:49:05 33° S
Resurs 1-4 Rocket 4.1 02:44:28 10° NE 02:48:29 21° E 02:52:29 10° SE
CZ-4C R/B 3.8 02:51:19 13° W 02:55:36 30° NW 03:01:04 10° NNE
Cosmos 1470 Rocket 4.2 02:53:52 25° SSE 02:56:12 50° E 03:00:31 10° NNE
USA 161 2.4 02:57:04 32° E 02:57:18 33° ENE 02:59:29 10° N
Cosmos 1933 Rocket 4.1 02:58:49 25° SSE 03:01:07 54° E 03:05:24 10° NNE
USA 215 3.3 02:56:09 10° NE 03:02:40 76° NW 03:07:13 21° WSW
Cosmos 1300 3.2 02:59:13 10° NNW 03:02:51 41° W 03:03:20 39° WSW
Cosmos 1386 Rocket 4.5 02:59:30 25° S 03:03:21 87° E 03:09:33 10° N
Cosmos 1745 Rocket 4.1 03:01:55 28° SSW 03:05:23 68° W 03:11:44 10° N
Cosmos 1980 Rocket 2.2 03:01:29 10° NNW 03:07:01 59° WSW 03:10:49 20° S
Cosmos 2360 Rocket 4.5 03:02:48 10° N 03:07:27 25° NE 03:12:03 10° ESE
ERS-2 2.8 03:04:31 10° N 03:08:03 42° WNW 03:08:59 35° WSW
Cosmos 1437 3.4 03:09:24 38° W 03:09:50 40° WNW 03:13:03 10° N
SL-08 R/B 3.6 03:10:14 30° SSW 03:12:17 51° W 03:17:04 10° NNW
Nadezhda 1 Rocket 4.0 03:06:23 10° NNW 03:12:29 63° W 03:16:22 23° SSW
Aureole 1 Rocket 4.2 03:09:26 10° NW 03:13:28 32° WSW 03:14:57 28° SW
Cosmos 2344 4.4 03:08:13 16° WSW 03:14:24 51° NW 03:23:29 10° NE
Cosmos 332 Rocket 3.9 03:09:54 10° NNW 03:14:34 53° WSW 03:17:02 26° S
Cosmos 1709 Rocket 4.2 03:12:16 17° S 03:17:20 70° E 03:23:35 10° NNE
Okean O Rocket 4.2 03:15:18 10° NE 03:17:59 16° E 03:20:38 10° SE
Spot 4 Rocket 4.1 03:16:06 10° NNE 03:21:16 80° ESE 03:24:45 21° S
Cosmos 968 Rocket 3.4 03:18:35 26° SSW 03:21:31 89° ESE 03:26:42 10° NNE
Cosmos 2292 Rocket 4.1 03:20:01 18° SSE 03:21:49 35° E 03:24:53 10° NNE
Sich 1 3.8 03:22:35 27° WSW 03:24:18 38° WNW 03:28:27 10° N
Cosmos 2082 Rocket 3.6 03:21:08 15° W 03:24:44 27° NW 03:29:32 10° N
CZ-2D R/B 3.1 03:20:30 10° NNE 03:25:28 43° E 03:30:28 10° S
NPP 4.1 03:21:14 10° N 03:26:24 48° WNW 03:29:31 23° SW
Cosmos 1538 Rocket 4.0 03:21:43 10° NNW 03:26:51 62° WSW 03:31:31 13° S
Cosmos 1697 Rocket 3.8 03:24:03 10° NW 03:28:34 25° WSW 03:30:09 22° SW
Lacrosse 5 1.9 03:23:56 10° NW 03:28:52 54° SW 03:33:46 10° SSE
Cosmos 923 Rocket 4.4 03:25:12 10° NNW 03:30:29 68° ENE 03:35:42 10° SSE
Cosmos 1869 3.4 03:26:37 10° N 03:30:36 77° E 03:34:10 12° SSE
Cosmos 1455 2.1 03:26:50 10° N 03:30:39 88° W 03:33:27 17° S
USA 129 4.5 03:32:39 12° NE 03:32:39 12° NE 03:32:54 10° NNE
UNKNOWN OBJECT B 4.3 03:30:29 10° NNE 03:33:52 30° E 03:37:18 10° SSE
Cosmos 1862 Rocket 3.5 03:29:42 10° NNW 03:34:12 71° W 03:37:41 16° S
SL-14 R/B 4.5 03:33:39 22° WSW 03:34:57 27° WNW 03:38:16 10° NNW
Cosmos 1833 Rocket 4.1 03:36:16 13° WSW 03:40:09 26° NW 03:44:53 10° N
Cosmos 1680 Rocket 3.9 03:35:54 10° NNW 03:41:05 64° ENE 03:46:15 10° SSE
ADEOS 3.8 03:36:52 10° N 03:42:00 56° WNW 03:45:38 19° SW
Meteor 1-4 Rocket 2.9 03:41:30 10° NNW 03:45:07 47° W 03:47:31 19° SSW
BREEZE-M DEB (TANK) 4.2 03:42:57 10° WNW 03:46:49 62° SSW 04:01:38 10° SE
OAO 3 Rocket 4.4 03:45:10 19° SSW 03:46:54 24° S 03:50:39 10° ESE
Cosmos 1777 Rocket 4.0 03:43:53 18° SSW 03:47:56 87° WNW 03:53:16 10° NNE
Cosmos 1933 3.8 03:43:57 10° N 03:47:57 62° E 03:51:56 10° SSE
Cosmos 1703 4.2 03:46:25 21° SW 03:48:22 33° WNW 03:51:59 10° N
Cosmos 1726 3.9 03:46:10 10° NW 03:48:28 16° W 03:49:06 15° W
CENTAUR R/B 3.1 03:45:26 16° WSW 03:50:26 51° NW 03:57:19 10° NNE
IRS-1D 3.6 03:47:31 10° NNE 03:52:54 86° WNW 03:57:49 12° SSW
ATLAS 5 CENTAUR R/B 3.1 03:50:11 10° S 03:54:33 35° ESE 03:59:16 10° NE
Lacrosse 5 rocket 1.5 03:52:02 10° NW 03:56:26 86° NE 04:01:00 10° SE
ARIANE 5 R/B 2.5 03:51:45 10° N 03:56:53 71° WNW 04:01:18 13° SSW
Cosmos 773 Rocket 4.0 03:52:15 10° NNW 03:57:17 58° WSW 04:02:19 10° S
EO 1 Del DPAF 3.7 03:56:23 13° S 03:59:36 44° W 04:03:23 10° NNW
Cosmos 1869 Rocket 4.0 03:56:51 10° S 04:01:09 61° E 04:05:31 10° NNE
Cosmos 2181 Rocket 4.1 03:57:08 10° NNW 04:03:06 56° W 04:09:08 10° SSW
SL-16 R/B 2.3 03:59:06 10° NW 04:04:37 54° WSW 04:10:07 10° S
Cosmos 1346 3.1 04:03:14 13° S 04:05:53 87° ESE 04:08:59 10° N
Cosmos 1271 Rocket 3.8 04:03:37 10° NW 04:06:50 26° W 04:09:09 15° SW
Cosmos 371 Rocket 4.4 04:03:24 10° NW 04:07:23 26° W 04:10:54 12° SSW
Cosmos 1626 2.9 04:06:25 16° SW 04:09:00 36° WNW 04:12:31 10° N
MTI 4.0 04:06:37 10° S 04:09:54 53° W 04:13:13 10° NNW
Abrixas 3.6 04:07:05 10° W 04:10:03 41° N 04:13:01 10° ENE
ISS -2.6 04:12:30 10° NW 04:15:44 56° NNE 04:18:56 10° ESE
Cosmos 2322 Rocket 2.7 04:13:52 10° NW 04:19:02 38° WSW 04:24:08 10° S
SL-16 R/B 3.0 04:21:58 10° SSW 04:27:50 42° W 04:33:45 10° NNW
Resurs 1-4 Rocket 2.4 04:23:28 10° N 04:28:38 53° WNW 04:33:48 10° SW
Cosmos 1703 Rocket 3.9 04:24:27 10° NNW 04:28:38 46° W 04:32:47 10° SSW
Cosmos 304 Rocket 3.9 04:23:55 10° NNW 04:28:40 56° WSW 04:33:22 10° S
Meteor 1-26 Rocket 4.2 04:26:49 10° NNW 04:32:25 79° W 04:37:55 10° S
Cosmos 2112 Rocket 4.2 04:29:28 10° NNW 04:34:30 51° WSW 04:39:30 10° S
Cosmos 1733 Rocket 4.4 04:33:15 10° SSE 04:37:17 40° E 04:41:23 10° NNE
BREEZE-M DEB (TANK) 3.8 04:37:28 10° W 04:41:11 71° NNW 04:55:03 10° ENE
CZ-2D R/B 3.6 04:37:39 10° N 04:41:49 59° WNW 04:45:51 10° SSW
Cosmos 2074 Rocket 4.2 04:35:54 10° SSW 04:42:01 60° W 04:48:13 10° N
Cosmos 2184 Rocket 4.2 04:37:24 10° SSW 04:43:42 62° W 04:50:01 10° N
BREEZE-M DEB (TANK) 3.2 04:37:11 10° WNW 04:44:06 80° N 04:47:04 10° E
USA 215 4.5 04:39:19 10° NE 04:45:08 36° NNW 04:50:58 10° W
